Flag for Switzerland Weather past 2 weeks in Liestal, Basel-Land, Switzerland

Now
66 °F

Sunny.


Feels Like: 66 °F
Forecast: 47 / 65 °F
Wind: 2 mph from North

Location: Bale-Mulhouse

Current Time: Oct 20, 2014 at 8:00:40 PM

Latest Report: Oct 20, 2014 at 7:30 PM


Visibility: 10 mi

Pressure: 30.07 "Hg

Humidity: 83%

Dew point: 61 °F

Location of LiestalLocation

Historic Weather in Liestal — Graph

°F

Liestal temperature yesterday

Maximum temperature yesterday: 75 °F (at 2:30 PM)
Minimum temperature yesterday: 52 °F (at 7:30 AM)
Average temperature yesterday: 62 °F

Past Weeks' High & Low Weather Summary

 TemperatureHumidityPressure
High75 °F (Oct 18, 4:30 PM)100% (Oct 6, 12:00 AM)30.21 "Hg (Oct 6, 12:00 AM)
Low46 °F (Oct 18, 3:30 AM)50% (Oct 14, 3:30 PM)29.74 "Hg (Oct 13, 5:00 AM)
Average60 °F87%29.93 "Hg
* Reported Oct 5 7:00 PM — Oct 20 7:00 PM, Liestal, Weather by CustomWeather, © 2014

Note: Actual official high and low records may vary slightly from our data, if they occured in-between our weather recording intervals... More about our weather records

Advertising

Liestal weather history for previous 24 hours

 ConditionsComfort  
Time TempWeatherWind HumidityBarometerVisibility
7:00 PM
Oct 20
66 °FSunny.2 mph83%30.04 "Hg10 mi
6:30 PM68 °FPartly sunny.5 mph78%30.04 "HgN/A
6:00 PM70 °FPartly sunny.6 mph73%30.04 "HgN/A
5:30 PM70 °FBroken clouds.7 mph73%30.07 "HgN/A
5:00 PM72 °FPartly sunny.9 mph69%30.07 "HgN/A
4:30 PM72 °FPartly sunny.8 mph69%30.07 "HgN/A
4:00 PM72 °FPartly sunny.9 mph69%30.07 "HgN/A
3:30 PM72 °FPartly sunny.8 mph69%30.09 "HgN/A
3:00 PM73 °FPartly sunny.8 mph65%30.09 "HgN/A
2:30 PM73 °FBroken clouds.3 mph65%30.09 "HgN/A
2:00 PM72 °FPartly sunny.6 mph65%30.09 "HgN/A
1:30 PM72 °FPartly sunny.9 mph65%30.12 "HgN/A
1:00 PM72 °FScattered clouds.7 mph65%30.12 "HgN/A
12:42 PM72 °FPassing clouds.8 mph65%30.15 "HgN/A
12:00 PM68 °FPassing clouds.5 mph69%30.15 "HgN/A
11:30 AM68 °FScattered clouds.3 mph73%30.15 "HgN/A
11:00 AM63 °FScattered clouds.7 mph88%30.15 "HgN/A
10:30 AM59 °FScattered clouds.6 mph88%30.18 "HgN/A
10:00 AM59 °FBroken clouds.6 mph88%30.18 "HgN/A
9:30 AM57 °FBroken clouds.7 mph94%30.18 "HgN/A
9:00 AM55 °FScattered clouds.2 mph100%30.18 "HgN/A
8:30 AM54 °FClear.3 mph100%30.15 "Hg10 mi
8:00 AM54 °FPassing clouds.2 mph94%30.15 "HgN/A
7:30 AM54 °FPassing clouds.3 mph94%30.15 "HgN/A
7:00 AM54 °FPassing clouds.5 mph94%30.15 "HgN/A
5:00 AM55 °FClear.3 mph94%30.18 "Hg10 mi
4:30 AM55 °FPassing clouds.5 mph94%30.18 "HgN/A
4:00 AM55 °FClear.2 mph94%30.21 "HgN/A
3:30 AM55 °FClear.3 mph94%30.21 "HgN/A
3:00 AM55 °FClear.5 mph94%30.21 "HgN/A
2:30 AM55 °FClear.3 mph94%30.18 "HgN/A
2:00 AM55 °FClear.3 mph94%30.21 "HgN/A
1:30 AM55 °FClear.2 mph94%30.18 "HgN/A
1:00 AM57 °FClear.2 mph94%30.18 "HgN/A
12:30 AM57 °FClear.2 mph94%30.18 "HgN/A
12:00 AM55 °FPassing clouds.3 mph100%30.18 "HgN/A
11:30 PM
Oct 19
55 °FClear.2 mph94%30.21 "Hg10 mi
11:00 PM57 °FPassing clouds.3 mph94%30.21 "HgN/A
10:30 PM55 °FClear.2 mph94%30.18 "Hg10 mi
10:00 PM57 °FClear.3 mph94%30.18 "Hg10 mi
9:30 PM59 °FClear.2 mph88%30.18 "Hg10 mi
9:00 PM59 °FClear.3 mph94%30.18 "Hg10 mi
8:30 PM61 °FClear.2 mph88%30.18 "Hg10 mi
8:00 PM63 °FClear.3 mph83%30.18 "Hg10 mi
Weather by CustomWeather, © 2014

See weather overviewHow to use our weather pages